#timestamp,LO_Frequency,Hit,StdDev 
1585173615.5,286046999.7,N
1585173635.3,286047002.2,N
1585173655.2,286047003.9,N
1585173675.0,286047003.9,N
1585173675.9,286047003.9,N
1585173695.8,286047001.6,N
1585173715.6,286047001.4,N
1585173735.4,286047002.7,N
1585173755.3,286047002.1,N
1585173775.1,286047003.1,N
1585173795.8,286047003.5,N
1585173815.7,286047003.2,N
1585173835.5,286047004.0,N
1585173855.4,286047002.0,N
1585173875.2,286047001.7,N
1585173895.0,286047001.5,N
1585173895.9,286047001.5,N
1585173915.8,286047001.8,N
1585173935.6,286047002.4,N
1585173955.5,286047002.3,N
1585173975.3,286046999.9,N
1585173995.1,286047001.8,N
1585174015.9,286047001.9,N
1585174035.7,286047003.2,N
1585174055.5,286047004.3,N
1585174075.4,286047002.3,N
1585174095.2,286047004.0,N
1585174115.1,286047001.6,N
1585174116.0,286047001.6,N
1585174135.8,286047003.8,Y
1585174155.6,286047000.9,P
1585174175.5,286046998.1,N
1585174195.3,286047000.7,N
1585174215.2,286047001.0,N
1585174235.0,286046999.9,N
1585174235.9,286046999.9,N
1585174255.7,286047000.1,N
1585174275.6,286047004.4,Y
1585174295.4,286047000.9,P
1585174315.3,286047002.4,P
1585174335.1,286046998.3,N
1585174355.8,286047000.9,N
1585174375.7,286047001.1,N
1585174395.5,286047002.7,N
1585174415.4,286047001.1,N
1585174435.2,286046998.2,N
1585174455.0,286046998.4,N
1585174455.9,286046998.4,N
1585174475.8,286046997.5,N
1585174495.6,286046998.0,N
1585174515.4,286046997.6,N
1585174535.3,286046997.2,N
1585174555.1,286047000.5,N
1585174575.9,286047000.1,N
1585174595.7,286047000.1,N
1585174615.5,286047002.5,N
1585174635.4,286047002.0,N
1585174655.2,286047001.5,N
1585174675.0,286047002.6,N
1585174676.0,286047002.6,N
1585174695.8,286047002.7,N
1585174715.6,286047002.2,N
1585174735.5,286047001.8,N
1585174755.3,286047000.5,N
1585174775.1,286046999.7,N
1585174795.9,286046999.4,N
1585174815.7,286046996.5,N
1585174835.6,286046998.4,N
1585174855.4,286046998.3,N
1585174875.2,286046999.0,N
1585174895.1,286047000.5,N
1585174896.0,286047000.5,N
1585174915.8,286047002.4,N
1585174935.6,286047001.6,N
1585174955.5,286047001.9,N
1585174975.3,286047004.2,N
1585174995.2,286047002.4,N
1585175015.9,286047002.0,N
1585175035.7,286047002.7,N
1585175055.6,286047002.6,N
1585175075.4,286047000.1,N
1585175095.3,286047000.6,N
1585175115.1,286047000.0,N
1585175116.0,286047000.0,N
1585175135.8,286047001.6,N
1585175155.7,286047001.5,N
1585175175.5,286047001.9,N
1585175195.3,286047002.8,N
1585175215.2,286047000.4,N
1585175235.0,286047000.9,N
1585175235.9,286047000.9,N
1585175255.8,286046998.5,N
1585175275.6,286047000.9,N
1585175295.4,286046996.5,N
1585175315.3,286047001.2,N
1585175335.1,286046997.1,N
1585175355.9,286046996.9,N
1585175375.7,286046998.8,N
1585175395.5,286047000.0,N
1585175415.4,286047001.1,N
1585175435.2,286046996.8,N
1585175455.0,286046999.1,N
1585175455.9,286046999.1,N
1585175475.8,286047001.2,N
1585175495.6,286047002.3,N
1585175515.5,286047001.7,N
1585175535.3,286047001.7,N
1585175555.1,286047001.7,N
1585175575.9,286047000.8,N
1585175595.7,286046998.7,N
1585175615.6,286046999.5,N
1585175635.4,286046994.9,Y
1585175655.2,286046993.7,P
1585175675.1,286046992.6,N
1585175676.0,286046992.6,N
1585175695.8,286046994.6,N
1585175715.6,286046994.0,N
1585175735.5,286046993.5,N
1585175755.3,286046999.6,N
1585175775.2,286046996.8,N
1585175795.9,286046998.0,N
1585175815.7,286046993.8,N
1585175835.6,286046991.7,Y
1585175855.4,286046999.0,P
1585175875.3,286047001.0,N
1585175895.1,286047000.6,N
1585175896.0,286047000.6,N
1585175915.8,286047000.9,N
1585175935.8,286046999.0,N
1585175955.6,286046996.5,N
1585175975.5,286046996.6,N
1585175995.3,286046998.8,N
1585176015.1,286046997.3,N
1585176035.9,286046996.8,N
1585176055.7,286046999.6,N
1585176075.6,286046996.5,N
1585176095.4,286046997.0,N
1585176115.2,286046996.5,N
1585176135.1,286046998.8,N
1585176136.0,286046998.8,N
1585176155.8,286046996.8,N
1585176175.7,286046996.5,N
1585176195.5,286046999.1,N
1585176215.3,286046996.5,N
1585176235.2,286046996.5,N
1585176255.0,286046997.0,N
1585176255.9,286046997.0,N
1585176275.8,286046996.8,N
1585176295.6,286046997.5,N
1585176315.4,286046997.9,N
1585176335.3,286046997.0,N
1585176355.1,286046999.3,N
1585176375.8,286046999.3,N
1585176395.7,286046997.1,N
1585176415.5,286046997.0,N
1585176435.4,286046996.5,N
1585176455.2,286046997.7,N
1585176475.0,286046999.2,N
1585176475.9,286046999.2,N
1585176495.8,286046996.9,N
1585176515.6,286046998.0,N
1585176535.5,286046996.9,N
1585176555.3,286046996.9,Y
1585176575.1,286047000.6,P
1585176595.9,286046999.5,N
1585176615.7,286046997.7,N
1585176635.6,286046996.7,N
1585176655.4,286046996.9,N
1585176675.2,286046999.6,N
1585176695.1,286046999.5,N
1585176696.0,286046999.5,N
1585176715.8,286046999.0,N
1585176735.6,286046996.5,N
1585176755.5,286046999.5,N
1585176775.3,286046998.4,N
1585176795.2,286047000.7,N
1585176815.9,286047002.8,N
1585176835.7,286047002.4,N
1585176855.6,286047000.3,N
1585176875.4,286047001.2,N
1585176895.3,286046999.8,N
1585176915.1,286047002.6,N
1585176916.0,286047002.6,N
1585176935.8,286047001.3,N
1585176955.7,286047004.1,N
1585176975.5,286047001.9,N
1585176995.4,286047002.4,N
1585177015.2,286046998.6,N
1585177035.0,286046999.5,N
1585177035.9,286046999.5,N
1585177055.8,286047001.2,N
1585177075.6,286047000.1,N
1585177095.4,286047002.8,N
1585177115.3,286047000.4,N
1585177135.1,286047000.8,N
1585177155.9,286046999.7,N
1585177175.7,286047002.4,N
1585177195.5,286047000.4,N
